This demonstration page uses our WeatherBlox Daily Observations layout. Learn more.

Left ArrowRight Arrow

41.12389, -100.76542

Hourly Observations for January 19, 2019

Temp ( °F °C ) Dew Point ( °F °C ) Humidity (%) Winds ( mph kmh ) Pressure ( in mb ) Visibility ( mi km ) Precip ( " mm )
12:53 am 00:53 Cloudy 15 -9.4 9 -12.8 77 77 N 12 19 30.35 1028 10 16 0.00 0.00
1:53 am 01:53 Cloudy 14 -10 9 -12.8 80 80 N 13 20 30.36 1028 10 16 0.00 0.00
2:53 am 02:53 Cloudy 14 -10 9 -12.8 80 80 N 13 20 30.37 1028 10 16 0.00 0.00
3:53 am 03:53 Clear 12 -11.1 7 -13.9 80 80 N 10 17 30.40 1029 10 16 0.00 0.00
4:53 am 04:53 Clear 11 -11.7 6 -14.4 81 81 N 8 13 30.40 1030 10 16 0.00 0.00
5:53 am 05:53 Clear 9 -12.8 5 -15 84 84 NNW 6 9 30.41 1030 10 16 0.00 0.00
6:53 am 06:53 Clear 7 -13.9 3 -16.1 84 84 NE 5 7 30.44 1031 10 16 0.00 0.00
7:53 am 07:53 Clear 7 -13.9 3 -16.1 84 84 NE 3 6 30.44 1031 10 16 0.00 0.00
8:53 am 08:53 Sunny 10 -12.2 4 -15.6 76 76 Calm 30.43 1031 10 16 0.00 0.00
9:53 am 09:53 Sunny 13 -10.6 8 -13.3 81 81 Calm 30.44 1031 10 16 0.00 0.00
10:53 am 10:53 Sunny 16 -8.9 9 -12.8 74 74 NNW 5 7 30.45 1031 10 16 0.00 0.00
11:53 am 11:53 Sunny 20 -6.7 12 -11.1 71 71 Calm 30.41 1030 10 16 0.00 0.00
12:53 pm 12:53 Sunny 24 -4.4 13 -10.6 62 62 WSW 6 9 30.36 1028 10 16 0.00 0.00
1:53 pm 13:53 Sunny 27 -2.8 14 -10 58 58 Calm 30.32 1027 10 16 0.00 0.00
2:53 pm 14:53 Sunny 30 -1.1 17 -8.3 58 58 VRB 5 7 30.29 1026 10 16 0.00 0.00
3:53 pm 15:53 Sunny 32 0 19 -7.2 59 59 Calm 30.26 1025 10 16 0.00 0.00
4:53 pm 16:53 Sunny 32 0 21 -6.1 64 64 SSW 8 13 30.27 1025 10 16 0.00 0.00
5:53 pm 17:53 Clear 28 -2.2 20 -6.7 72 72 S 6 9 30.26 1025 10 16 0.00 0.00
6:53 pm 18:53 Clear 26 -3.3 19 -7.2 75 75 S 5 7 30.27 1025 10 16 0.00 0.00
7:53 pm 19:53 Clear 27 -2.8 20 -6.7 75 75 SSW 7 11 30.29 1026 10 16 0.00 0.00
8:53 pm 20:53 Mostly Clear 27 -2.8 19 -7.2 72 72 S 7 11 30.27 1025 10 16 0.00 0.00
9:53 pm 21:53 Clear 26 -3.3 19 -7.2 75 75 VRB 5 7 30.24 1024 10 16 0.00 0.00
10:53 pm 22:53 Clear 25 -3.9 19 -7.2 78 78 SSW 3 6 30.22 1023 10 16 0.00 0.00
11:53 pm 23:53 Clear 24 -4.4 19 -7.2 81 81 SSW 3 6 30.18 1022 10 16 0.00 0.00

Powered by AerisWeather